星链-30158 (STARLINK-30158 )

导读 | 豆包AI

STARLINK-30158是美国SpaceX公司于2023年7月24日发射的星链(Starlink)低轨通信卫星,隶属于星链全球宽带互联网星座组网项目。作为量产型星链卫星,它采用平板设计,搭载Ku/Ka波段通信载荷与氪工质霍尔推进器,具备自主避撞能力,运行于近地轨道,为全球提供低延迟互联网服务,设计寿命约5-7年,退役后会主动离轨再入大气层焚毁。

基本信息
目录编号:
57438
目录名称:
STARLINK-30158
国际标识:
2023-105J
轨道中心:
EARTH
卫星名称:
星链-30158
卫星全名:
星链-30158 (STARLINK-30158 )
卫星状态:
在轨 (已飞行1011 天)
发射日期:
2023-07-24 UTC
国别 :
美国 (US)
星等 :
--
轨道信息
数据来源 国际轨道数据
星历时间: 2026-04-29T15:36:39+0800
1天前
查看轨道信息
半长轴: 6861.195km
偏心率: 0.0002462
轨道倾角: 43.007°
近地点辐角 265.802°
升交点赤经 334.017°
平近点角 94.255°
近地点: 481.368km
远地点: 484.748km
周期: 94.267分钟
每日圈数: 15.275772
详细信息
固有亮度:
5
最大亮度:
0.3
卫星平台:
Starlink v2.0 mini
覆盖范围:
全球
运营商:
太空探索技术公司
运营商所在国:
美国
制造商(研发单位):
太空探索技术公司
制造商所在国:
美国
使用方式:
暂无
卫星简介
星链(Starlink)计划是由太空探索技术公司(SpaceX)提出的一个巨型低轨卫星互联网星座项目,计划在2019年至2024年间在太空搭建由约1.2万颗卫星组成的“星链”网络,其中1584颗将部署在地球上空550千米处的近地轨道,并从2020年开始工作。该卫星仍在工作。
2D轨道图
3D轨道图
轨道高度分析图
轨道倾角分析图
轨道综合分析图
查看轨道综合分析图